Date String (YYYY-MM-DD hh:mm:ss) UTC,Instrument flags,Ambient pressure (hPa),Sample flow (lpm),Bypass flow (lpm),Sample temperature (°C),Ambient temperature (°C),ASC tube jacket temperature (°C),LED temperature (°C),Box temperature (°C),Sample RH (%),Span deviation,Mass concentration (μg/m³),Mass concentration (μg/m³),Mass concentration (μg/m³)
DateTimeUTC,F1_M11,P_M11,Q1_M11,Q2_M11,T1_M11,T2_M11,T3_M11,T4_M11,T5_M11,U1_M11,ZSPAN_M11,X0_M11,X2_M11,X1_M11
2022-12-27 01:00:00,,0826.0,5.00,0.00,23.9,21.6,00.0,33.1,25.5,16.8,0000.0,0008.19,0005.63,0005.35
2022-12-27 01:01:00,,0826.2,4.99,0.00,23.9,21.5,00.0,33.1,25.4,16.7,0000.0,0008.14,0005.56,0005.27
2022-12-27 01:02:00,,0826.1,5.01,0.00,23.8,21.4,00.0,33.0,25.3,17.0,0000.0,0007.74,0005.53,0005.24
2022-12-27 01:03:00,,0826.0,5.00,0.00,23.7,21.3,00.0,33.0,25.2,17.1,0000.0,0007.66,0005.50,0005.22
2022-12-27 01:04:00,,0826.0,4.99,0.00,23.7,21.3,00.0,32.9,25.1,17.1,0000.0,0007.68,0005.48,0005.20
2022-12-27 01:05:00,,0826.0,4.96,0.00,23.6,21.2,00.0,32.9,25.0,17.4,0000.0,0007.61,0005.50,0005.25
2022-12-27 01:06:00,,0826.0,4.98,0.00,23.5,21.1,00.0,32.8,25.0,17.6,0000.0,0007.62,0005.54,0005.30
2022-12-27 01:07:00,,0826.0,5.04,0.00,23.5,21.1,00.0,32.8,24.9,17.5,0000.0,0007.69,0005.55,0005.31
2022-12-27 01:08:00,,0825.9,5.00,0.00,23.4,21.1,00.0,32.7,24.9,17.7,0000.0,0007.62,0005.54,0005.33
2022-12-27 01:09:00,,0825.9,5.01,0.00,23.4,21.0,00.0,32.7,24.9,17.7,0000.0,0007.71,0005.53,0005.33
2022-12-27 01:10:00,,0825.8,4.95,0.00,23.3,20.9,00.0,32.7,24.8,17.2,0000.0,0007.75,0005.45,0005.25
2022-12-27 01:11:00,,0825.9,5.00,0.00,23.3,20.9,00.0,32.6,24.7,16.7,0000.0,0007.60,0005.35,0005.14
2022-12-27 01:12:00,,0825.8,5.03,0.00,23.2,20.8,00.0,32.5,24.7,16.3,0000.0,0007.41,0005.19,0005.00
2022-12-27 01:13:00,,0825.8,5.01,0.00,23.2,20.8,00.0,32.5,24.6,16.6,0000.0,0007.20,0005.03,0004.84
2022-12-27 01:14:00,,0825.8,4.99,0.00,23.1,20.8,00.0,32.5,24.6,16.6,0000.0,0007.11,0004.85,0004.67
2022-12-27 01:15:00,,0825.9,4.96,0.00,23.0,20.7,00.0,32.4,24.5,16.6,0000.0,0006.83,0004.67,0004.50
2022-12-27 01:16:00,,0825.9,4.98,0.00,23.0,20.7,00.0,32.3,24.5,16.6,0000.0,0006.44,0004.42,0004.25
2022-12-27 01:17:00,,0825.7,5.04,0.00,23.0,20.7,00.0,32.3,24.4,16.6,0000.0,0005.88,0004.09,0003.95
2022-12-27 01:18:00,,0826.2,5.03,0.00,22.9,20.6,00.0,32.2,24.3,16.8,0000.0,0005.50,0003.83,0003.68
2022-12-27 01:19:00,,0825.9,4.99,0.00,22.9,20.6,00.0,32.2,24.3,16.5,0000.0,0005.30,0003.58,0003.42
2022-12-27 01:20:00,,0825.8,4.97,0.00,22.8,20.6,00.0,32.2,24.3,16.5,0000.0,0004.52,0003.26,0003.07
2022-12-27 01:21:00,,0825.8,4.99,0.00,22.8,20.7,00.0,32.1,24.2,16.3,0000.0,0003.79,0002.91,0002.67
2022-12-27 01:22:00,,0825.8,5.01,0.00,22.8,20.6,00.0,32.1,24.2,16.5,0000.0,0003.45,0002.61,0002.40
2022-12-27 01:23:00,,0825.9,5.02,0.00,22.7,20.7,00.0,32.0,24.2,16.3,0000.0,0003.25,0002.45,0002.25
2022-12-27 01:24:00,,0825.9,5.00,0.00,22.7,20.7,00.0,32.0,24.2,16.6,0000.0,0003.06,0002.27,0002.10
2022-12-27 01:25:00,,0825.9,4.97,0.00,22.7,20.6,00.0,31.9,24.1,16.4,0000.0,0002.66,0002.08,0001.94
2022-12-27 01:26:00,,0825.9,4.97,0.00,22.6,20.6,00.0,31.9,24.1,16.6,0000.0,0002.45,0001.95,0001.82
2022-12-27 01:27:00,,0825.9,4.99,0.00,22.6,20.6,00.0,31.9,24.1,16.6,0000.0,0002.35,0001.89,0001.77
2022-12-27 01:28:00,,0825.9,4.99,0.00,22.6,20.6,00.0,31.8,24.0,16.5,0000.0,0002.21,0001.81,0001.71
2022-12-27 01:29:00,,0825.9,5.03,0.00,22.5,20.5,00.0,31.8,24.0,16.6,0000.0,0001.90,0001.70,0001.63
2022-12-27 01:30:00,,0825.8,4.98,0.00,22.5,20.5,00.0,31.8,24.0,16.7,0000.0,0001.58,0001.60,0001.54
2022-12-27 01:31:00,,0825.9,4.99,0.00,22.5,20.5,00.0,31.7,23.9,16.6,0000.0,0001.58,0001.59,0001.52
2022-12-27 01:32:00,,0826.1,5.00,0.00,22.4,20.5,00.0,31.7,23.9,16.6,0000.0,0001.62,0001.62,0001.55
2022-12-27 01:33:00,,0825.7,5.02,0.00,22.4,20.4,00.0,31.7,23.9,16.4,0000.0,0001.61,0001.61,0001.54
2022-12-27 01:34:00,,0825.7,5.01,0.00,22.4,20.4,00.0,31.6,23.9,16.3,0000.0,0001.58,0001.57,0001.50
2022-12-27 01:35:00,,0825.7,4.99,0.00,22.4,20.4,00.0,31.6,23.9,16.5,0000.0,0001.57,0001.54,0001.47
2022-12-27 01:36:00,,0825.7,4.97,0.00,22.3,20.4,00.0,31.6,23.8,16.6,0000.0,0001.60,0001.53,0001.43
2022-12-27 01:37:00,,0825.7,5.02,0.00,22.3,20.3,00.0,31.5,23.8,16.7,0000.0,0001.53,0001.47,0001.38
2022-12-27 01:38:00,,0825.7,5.04,0.00,22.3,20.3,00.0,31.5,23.8,16.7,0000.0,0001.44,0001.37,0001.28
2022-12-27 01:39:00,,0825.7,5.01,0.00,22.3,20.3,00.0,31.5,23.8,16.7,0000.0,0001.34,0001.26,0001.17
2022-12-27 01:40:00,,0825.6,4.97,0.00,22.2,20.4,00.0,31.4,23.8,16.8,0000.0,0001.25,0001.17,0001.09
2022-12-27 01:41:00,,0825.6,4.97,0.00,22.2,20.4,00.0,31.4,23.8,16.4,0000.0,0001.13,0001.07,0001.00
2022-12-27 01:42:00,,0825.6,5.00,0.00,22.2,20.4,00.0,31.4,23.8,16.7,0000.0,0001.04,0000.97,0000.91
2022-12-27 01:43:00,,0825.6,5.01,0.00,22.2,20.4,00.0,31.4,23.8,17.2,0000.0,0001.13,0001.05,0000.98
2022-12-27 01:44:00,,0825.6,5.01,0.00,22.2,20.5,00.0,31.4,23.8,17.4,0000.0,0001.32,0001.21,0001.11
2022-12-27 01:45:00,,0825.6,5.00,0.00,22.2,20.5,00.0,31.3,23.9,18.3,0000.0,0001.83,0001.62,0001.51
2022-12-27 01:46:00,,0825.7,4.97,0.00,22.2,20.6,00.0,31.3,23.9,18.4,0000.0,0003.98,0002.16,0002.03
2022-12-27 01:47:00,,0825.7,5.00,0.00,22.3,20.7,00.0,31.3,24.0,17.8,0000.0,0004.48,0002.49,0002.37
2022-12-27 01:48:00,,0825.7,5.04,0.00,22.3,20.8,00.0,31.3,24.0,17.9,0000.0,0004.86,0002.85,0002.71
2022-12-27 01:49:00,,0825.7,5.00,0.00,22.3,20.9,00.0,31.3,24.1,17.9,0000.0,0005.24,0003.18,0003.05
2022-12-27 01:50:00,,0825.7,4.97,0.00,22.3,21.0,00.0,31.3,24.1,17.7,0000.0,0005.64,0003.42,0003.31
2022-12-27 01:51:00,,0825.7,4.97,0.00,22.4,21.1,00.0,31.3,24.2,17.7,0000.0,0006.55,0003.63,0003.50
2022-12-27 01:52:00,,0825.6,5.03,0.00,22.4,21.1,00.0,31.3,24.2,17.7,0000.0,0007.23,0003.85,0003.70
2022-12-27 01:53:00,,0825.6,5.03,0.00,22.4,21.1,00.0,31.3,24.2,17.5,0000.0,0007.49,0004.04,0003.88
2022-12-27 01:54:00,,0825.6,4.99,0.00,22.4,21.1,00.0,31.3,24.2,17.2,0000.0,0007.56,0004.09,0003.94
2022-12-27 01:55:00,,0825.6,4.97,0.00,22.4,21.0,00.0,31.3,24.2,17.0,0000.0,0007.52,0004.08,0003.94
2022-12-27 01:56:00,,0825.6,4.99,0.00,22.4,20.9,00.0,31.3,24.1,16.8,0000.0,0007.17,0003.89,0003.77
2022-12-27 01:57:00,,0825.6,5.02,0.00,22.4,20.8,00.0,31.3,24.1,16.8,0000.0,0005.18,0003.63,0003.51
2022-12-27 01:58:00,,0825.5,5.00,0.00,22.4,20.6,00.0,31.3,24.0,16.7,0000.0,0004.67,0003.44,0003.33
2022-12-27 01:59:00,,0825.5,5.01,0.00,22.3,20.6,00.0,31.3,23.9,16.6,0000.0,0004.37,0003.23,0003.12
